FW0579 Weather Reports


Display with metric or nautical units.
time (UTC)temp
F
wind
direction
speed
MPH
gust
MPH
rain 1hr
in
rain 24hr
in
rain mn
in
humidity
%
barometer
mb
20260901041611 61 360 5.0 10.0 0.00 0.00 0.00 72 1012.5
20260901040104 62 360 6.0 13.0 0.00 0.00 0.00 72 1012.1
20260901034606 62 360 7.0 13.0 0.00 0.00 0.00 71 1012.0
20260901033108 63 360 5.0 13.0 0.00 0.00 0.00 70 1011.8
20260901031559 63 360 6.0 17.0 0.00 0.00 0.00 69 1011.4
20260901030100 64 360 8.0 12.0 0.00 0.00 0.00 69 1011.4
20260901024606 64 360 6.0 15.0 0.00 0.00 0.00 67 1011.2
20260901023059 65 360 7.0 14.0 0.00 0.00 0.00 66 1011.2
20260901021606 66 360 7.0 14.0 0.00 0.00 0.00 65 1011.1
20260901020058 68 360 8.0 15.0 0.00 0.00 0.00 62 1011.0
20260901014603 70 240 8.0 14.0 0.00 0.00 0.00 59 1010.9
20260901013058 71 237 7.0 16.0 0.00 0.00 0.00 57 1010.8
20260901011600 72 252 7.0 12.0 0.00 0.00 0.00 55 1010.5
20260901010100 73 245 8.0 13.0 0.00 0.00 0.00 54 1010.4
20260901004556 74 227 6.0 13.0 0.00 0.00 0.00 52 1010.5
20260901003101 76 211 5.0 12.0 0.00 0.00 0.00 50 1010.7
20260901001559 77 248 7.0 15.0 0.00 0.00 0.00 49 1010.5
20260901000055 77 250 8.0 14.0 0.00 0.00 0.00 48 1010.5
20260831234557 78 286 4.0 12.0 0.00 0.00 0.00 48 1010.6
20260831233051 78 340 6.0 12.0 0.00 0.00 0.00 46 1010.6
20260831231551 78 232 7.0 13.0 0.00 0.00 0.00 47 1010.7
20260831230050 79 243 5.0 10.0 0.00 0.00 0.00 47 1010.8
20260831224649 78 214 5.0 12.0 0.00 0.00 0.00 47 1010.9
20260831223049 79 224 6.0 14.0 0.00 0.00 0.00 46 1010.9
20260831221548 80 259 2.0 10.0 0.00 0.00 0.00 45 1010.9
20260831220055 80 224 3.0 10.0 0.00 0.00 0.00 43 1011.0
20260831214548 79 213 6.0 12.0 0.00 0.00 0.00 44 1011.3
20260831213047 80 232 5.0 11.0 0.00 0.00 0.00 45 1011.6
20260831211544 80 234 3.0 11.0 0.00 0.00 0.00 44 1011.8
20260831210043 83 225 3.0 7.0 0.00 0.00 0.00 41 1011.8
20260831204553 81 207 1.0 6.0 0.00 0.00 0.00 45 1011.7
20260831203055 80 229 1.0 5.0 0.00 0.00 0.00 45 1011.7
20260831201535 79 259 1.0 7.0 0.00 0.00 0.00 47 1011.9
20260831200038 77 176 1.0 5.0 0.00 0.00 0.00 50 1012.1
20260831194529 75 223 2.0 7.0 0.00 0.00 0.00 51 1012.3
20260831193028 74 217 2.0 7.0 0.00 0.00 0.00 51 1012.4
20260831191524 72 232 4.0 10.0 0.00 0.00 0.00 54 1012.7
20260831190024 72 293 3.0 10.0 0.00 0.00 0.00 57 1012.7
20260831184520 71 227 5.0 11.0 0.00 0.00 0.00 58 1012.6
20260831183018 70 198 2.0 9.0 0.00 0.00 0.00 62 1012.7
20260831181515 69 242 1.0 6.0 0.00 0.00 0.00 63 1012.6
20260831180017 68 254 4.0 8.0 0.00 0.00 0.00 64 1012.7
20260831174511 68 294 1.0 7.0 0.00 0.00 0.00 64 1012.7
20260831173010 67 254 3.0 8.0 0.00 0.00 0.00 66 1012.5
20260831171509 67 235 1.0 5.0 0.00 0.00 0.00 67 1012.4
20260831170011 66 275 2.0 4.0 0.00 0.00 0.00 68 1012.3
20260831164506 65 268 1.0 5.0 0.00 0.00 0.00 70 1012.3
20260831163005 64 293 1.0 4.0 0.00 0.00 0.00 74 1012.3
20260831161504 63 261 3.0 6.0 0.00 0.00 0.00 76 1012.3
20260831160131 62 360 3.0 5.0 0.00 0.00 0.00 77 1012.2
20260831154601 61 360 4.0 8.0 0.00 0.00 0.00 80 1012.2
20260831153127 60 257 1.0 4.0 0.00 0.00 0.00 82 1012.1
20260831151552 59 237 2.0 4.0 0.00 0.00 0.00 84 1012.1
20260831150047 58 269 1.0 3.0 0.00 0.00 0.00 86 1012.1
20260831144543 57 278 0.0 3.0 0.00 0.00 0.00 86 1011.8
20260831143042 56 360 0.0 0.0 0.00 0.00 0.00 86 1011.6
20260831141543 56 360 0.0 0.0 0.00 0.00 0.00 85 1011.5
20260831140032 56 360 0.0 0.0 0.00 0.00 0.00 85 1011.2
20260831134530 56 360 0.0 0.0 0.00 0.00 0.00 85 1011.0
20260831133031 55 360 0.0 0.0 0.00 0.00 0.00 85 1010.8
20260831131529 55 360 0.0 0.0 0.00 0.00 0.00 85 1010.8
20260831130025 55 360 1.0 3.0 0.00 0.00 0.00 84 1010.6
20260831124524 55 360 0.0 0.0 0.00 0.00 0.00 83 1010.4
20260831123038 54 360 0.0 0.0 0.00 0.00 0.00 83 1010.2
20260831121527 54 360 0.0 0.0 0.00 0.00 0.00 81 1010.1
20260831120032 55 360 0.0 0.0 0.00 0.00 0.00 80 1010.1
20260831114519 55 360 0.0 0.0 0.00 0.00 0.00 80 1010.1
20260831113014 56 360 0.0 0.0 0.00 0.00 0.00 80 1010.1
20260831111515 56 360 0.0 0.0 0.00 0.00 0.00 81 1010.2
20260831110011 56 360 0.0 0.0 0.00 0.00 0.00 80 1010.2
20260831104521 57 360 0.0 0.0 0.00 0.00 0.00 78 1010.0
20260831103006 57 360 0.0 0.0 0.00 0.00 0.00 78 1010.2
20260831101510 58 313 0.0 0.0 0.00 0.00 0.00 77 1010.1
20260831100008 58 313 0.0 0.0 0.00 0.00 0.00 76 1010.1
20260831094502 59 360 0.0 0.0 0.00 0.00 0.00 76 1010.0
20260831091603 60 360 0.0 0.0 0.00 0.00 0.00 74 1010.0
20260831090057 61 360 0.0 0.0 0.00 0.00 0.00 73 1010.0
20260831084557 61 360 0.0 0.0 0.00 0.00 0.00 73 1010.0
20260831081557 62 360 0.0 0.0 0.00 0.00 0.00 72 1010.2
20260831080048 63 360 0.0 3.0 0.00 0.00 0.00 72 1010.4
20260831074542 63 360 0.0 2.0 0.00 0.00 0.00 70 1010.4
20260831071541 64 360 0.0 0.0 0.00 0.00 0.00 69 1010.4
20260831070105 64 360 0.0 0.0 0.00 0.00 0.00 68 1010.3
20260831064537 65 250 0.0 0.0 0.00 0.00 0.00 68 1010.4
20260831061533 66 360 0.0 2.0 0.00 0.00 0.00 66 1010.3
20260831060030 66 360 0.0 3.0 0.00 0.00 0.00 65 1010.3
20260831054528 67 360 2.0 4.0 0.00 0.00 0.00 63 1010.3
20260831051537 69 360 3.0 9.0 0.00 0.00 0.00 60 1010.5
20260831050022 70 238 5.0 10.0 0.00 0.00 0.00 59 1010.4
20260831044519 71 230 6.0 11.0 0.00 0.00 0.00 58 1010.4